Cloud_Cover
98 48 6 9 8 5 5 5 5 5 2 4 3 2 0 0 0 0 0 0 0 0 0 0 0 0 0 0 0 0 0 0 0 0 0 0 0 0 0 0 0 0 0 0 0
5 7 100 44 44 28 7 5 61 5 2 5 5 4 1 0 0 0 0 0 0 4 0 4 5 3 0 0 0 0 0 0 0 0 0 0 0 0 0 0 0 0 0 0 0
52 79 71 69 10 21 5 5 5 5 5 3 5 2 0 0 0 0 3 3 54 5 13 68 18 3 0 0 0 0 0 0 0 0 0 0 0 0 4 1 5 4 5 7 43
84 6 31 15 5 5 5 5 5 5 5 5 5 5 1 0 0 60 100 100 23 100 100 76 6 1 0 1 1 0 1 0 0 0 0 0 0 5 10 16 5 7 100 10 5
99 78 88 11 6 5 5 5 5 5 5 5 5 0 0 0 0 5 100 100 100 100 100 7 18 5 5 5 5 5 5 0 0 0 0 0 4 5 5 3 48 99 89 98 56
85 83 23 73 7 5 5 5 5 5 5 5 4 5 0 3 5 95 100 100 100 100 19 4 7 5 5 5 15 5 5 0 0 0 0 0 2 5 30 100 100 98 100 100 100
85 6 37 43 5 5 5 5 5 5 5 5 5 0 3 5 5 56 100 100 100 66 8 20 6 13 5 5 5 5 0 0 0 0 0 0 7 7 70 90 98 100 100 100 100
100 86 74 81 29 26 87 5 5 5 5 5 5 5 5 5 6 85 100 100 94 5 84 54 25 5 5 5 5 1 0 0 0 0 0 0 5 5 21 17 98 100 100 100 99
100 100 100 100 100 77 100 35 43 18 11 5 10 61 100 100 100 100 100 100 6 70 62 34 5 4 5 4 3 0 0 0 0 0 0 2 5 5 5 5 47 100 100 100 100
97 100 100 89 78 41 100 100 93 81 39 50 97 100 100 100 100 100 100 100 100 99 36 5 5 0 0 0 1 0 0 0 0 0 0 2 3 5 3 5 96 100 100 100 100
6 32 39 78 49 35 100 100 100 100 100 100 100 100 100 100 100 100 100 86 90 21 6 5 0 0 0 0 0 0 76 99 0 1 0 0 0 5 2 5 51 100 100 100 100
14 46 5 5 55 87 100 100 100 100 100 100 100 100 100 80 87 91 87 66 24 5 5 0 0 0 0 0 0 37 35 37 20 0 5 65 44 5 4 5 19 100 100 100 100
97 93 66 56 36 22 22 93 88 50 41 28 20 87 98 100 100 100 100 40 10 0 0 0 0 0 0 0 0 0 0 5 0 0 0 0 14 68 4 5 16 99 99 100 100
99 100 99 100 47 51 52 9 15 5 36 5 34 51 38 90 89 39 22 2 0 0 0 0 0 0 0 5 5 0 0 0 0 0 3 0 4 2 0 0 17 100 36 100 100
82 95 100 100 69 76 5 5 5 6 7 47 5 9 6 5 4 2 0 0 0 0 0 0 0 0 3 5 5 5 0 0 0 2 0 0 0 0 0 0 3 100 8 100 100
90 83 100 73 98 95 43 5 15 83 43 33 26 6 5 4 0 0 0 0 0 0 5 1 2 5 5 6 5 0 0 0 0 0 4 0 0 0 0 0 0 100 85 52 100
100 100 100 100 91 100 71 6 7 47 85 74 88 49 5 5 2 5 0 0 4 2 4 3 0 0 0 0 0 0 0 4 4 5 2 0 0 0 0 0 0 29 84 73 99
100 100 100 100 100 100 73 14 39 57 74 63 99 6 5 5 5 5 1 5 4 5 5 0 2 0 0 0 0 0 0 3 0 0 0 0 0 0 0 0 0 0 8 51 95
100 100 100 100 100 100 68 87 52 68 69 90 100 5 5 5 5 5 6 5 5 5 5 5 5 5 3 0 5 0 0 0 0 2 4 0 0 0 0 0 0 0 15 12 60
100 100 100 100 100 100 96 100 82 66 48 58 96 52 68 22 5 5 6 6 21 6 5 5 86 53 5 5 5 5 4 1 2 0 0 0 0 0 0 0 0 0 0 97 22
100 100 100 100 100 100 100 100 25 56 15 16 40 90 97 70 34 15 37 29 59 82 5 27 28 36 26 10 5 2 4 0 0 0 0 0 0 0 0 0 0 0 0 6 96
100 100 100 100 100 100 100 99 95 96 23 70 73 67 40 53 74 86 85 39 98 77 28 55 96 95 43 98 9 45 5 4 0 0 0 0 0 0 0 0 0 0 0 0 28
100 100 92 94 99 100 100 100 100 100 100 100 23 40 65 88 8 33 61 100 99 66 100 96 71 100 92 16 89 19 9 5 5 0 0 2 2 0 0 0 0 0 0 0 0
100 100 100 100 100 100 100 100 100 91 94 99 55 100 100 6 10 5 92 13 61 100 100 90 100 100 100 52 33 52 18 8 5 4 1 0 28 5 2 0 0 0 0 0 0
100 100 100 100 100 100 100 100 80 20 100 100 100 96 100 25 8 63 94 91 71 97 89 23 100 100 100 62 14 6 10 10 38 16 5 0 0 2 5 2 0 0 0 0 0
100 100 100 100 100 100 92 100 100 100 100 100 100 100 48 35 12 28 100 100 30 67 100 99 92 52 100 100 13 10 68 33 32 5 5 3 1 0 0 0 2 5 0 0 0
100 100 100 100 87 83 100 100 100 100 100 96 99 96 84 29 5 86 100 100 94 80 54 100 96 92 74 100 96 5 6 19 9 74 5 2 8 2 5 2 15 100 26 8 2